Lid_Strength_Index
1 0 1 3 2 2 2 2 1 1 1 1 1 0 1 0 -0 0 1 -1 -2 -2 -2 -2 -1 -2 -1 -1 -1 -1 -1 -1 -1 -1 -1 -1 -1 -1 -1 -1 -1 -1 -1
0 0 3 3 3 2 2 2 1 1 2 2 1 1 1 1 0 1 0 0 -2 -2 -2 -2 -2 -2 -1 -1 -1 -1 -1 -1 -1 -1 -1 -1 -1 -1 -1 -1 -0 -1 -1
0 1 2 2 2 2 2 1 2 2 1 1 1 1 1 0 0 0 1 0 -0 -2 -2 -2 -2 -2 -2 -1 -1 -1 -1 -1 -1 -1 -1 -1 -1 -1 -1 -1 -2 -2 -1
1 2 3 2 2 2 2 2 2 2 2 2 2 2 1 1 0 1 1 1 -0 -0 -1 -2 -2 -2 -1 -1 -1 -1 -1 -1 -1 -1 -1 -1 -1 -1 -1 -2 -2 -1 -1
1 3 2 2 2 2 2 2 3 3 3 3 2 2 2 2 1 0 1 1 0 -0 -0 -1 -2 -2 -1 -1 -1 -1 -1 -1 -1 -1 -1 -1 -1 -1 -1 -2 -1 -1 -1
2 2 1 2 2 3 3 3 3 3 2 2 2 2 2 2 2 2 2 1 1 0 0 0 0 -0 -1 -1 -1 -1 -1 -1 -1 -1 -1 -1 -1 -1 -1 -1 -1 -1 -0
1 1 2 2 2 2 3 3 3 3 2 2 2 3 3 2 2 2 2 2 1 1 1 0 0 0 -0 -1 -1 -1 -1 -1 -1 -1 -1 -1 -1 -1 -1 -1 -1 -1 -0
1 1 2 3 2 3 2 2 3 3 2 2 4 4 6 5 3 2 2 2 2 1 1 0 0 0 0 0 0 -1 -1 -1 -1 -1 -1 -1 -1 -1 -1 -1 -2 -1 -1
1 2 2 2 2 2 2 3 2 3 4 3 3 4 7 7 5 3 3 2 2 3 2 1 0 0 0 0 -0 -1 -1 -1 -1 -1 -1 -1 -2 -1 -1 -1 -1 -0 0
2 1 2 1 1 2 3 3 2 3 4 4 4 2 3 4 6 7 4 3 3 2 2 2 1 1 0 0 -1 -1 -0 -1 -1 -1 -1 -2 -1 -1 -1 -1 -1 -0 1
2 1 1 2 2 3 3 3 3 3 3 4 4 4 4 4 4 6 7 5 3 3 2 2 1 2 1 0 -0 -0 1 0 -0 -1 -1 -1 -1 -1 -1 -0 1 1 1
3 2 1 2 2 2 3 2 2 3 3 3 3 4 4 4 4 5 6 6 5 4 2 2 1 1 1 -0 -0 0 1 1 1 1 -0 -1 -1 -1 -1 0 1 1 1
3 3 2 3 3 2 2 2 3 3 3 3 3 3 3 3 3 4 5 5 5 3 3 2 2 0 0 1 1 0 1 2 2 2 1 0 -0 0 0 1 0 1 0
3 2 2 2 2 2 2 2 3 2 2 2 2 3 3 2 2 2 4 4 6 5 3 3 1 0 -0 0 0 0 1 2 2 2 2 2 2 1 1 1 1 1 0
2 2 2 2 2 2 2 2 2 2 2 3 2 3 2 1 2 2 3 2 4 7 6 3 3 1 -0 0 1 0 2 2 3 3 3 3 3 3 2 2 2 1 1
2 2 2 2 2 2 2 2 2 2 2 3 2 2 2 1 2 1 3 2 3 4 6 3 2 1 1 1 2 2 2 3 4 3 3 3 3 3 3 3 3 2 2
2 2 2 2 2 2 2 2 2 2 2 2 2 2 2 2 2 2 2 2 3 3 4 3 2 2 2 2 3 2 3 3 3 4 3 3 4 4 4 4 4 3 3
2 2 2 2 2 1 2 2 2 1 2 2 2 2 2 1 2 2 3 3 3 3 3 4 2 2 3 2 2 3 3 3 4 4 4 4 4 5 5 5 5 5 5
2 2 2 2 2 2 2 2 2 2 2 2 1 2 2 2 2 2 3 3 3 2 2 3 3 1 3 2 2 2 3 3 2 3 5 5 5 5 5 6 6 6 6
2 2 1 1 1 2 1 1 1 2 2 1 1 1 1 2 2 2 2 2 2 2 2 3 3 3 2 1 2 3 4 3 4 4 5 5 5 6 6 6 5 6 7
1 1 1 2 2 2 2 2 2 2 2 2 1 1 1 2 2 2 1 2 2 2 3 3 3 3 3 3 4 4 5 5 6 6 6 7 8 8 7 6 5 5 5
2 2 2 3 3 3 8 6 3 2 2 2 2 2 2 3 4 6 4 3 2 2 3 3 3 4 4 4 4 4 5 6 7 5 7 8 8 9 9 9 6 6 7
3 3 3 4 4 5 9 9 7 2 3 3 3 2 2 3 4 5 7 6 6 6 4 3 4 4 5 4 4 5 5 5 6 6 7 9 9 11 10 8 7 8 8
4 4 4 4 5 5 9 9 7 3 3 2 2 2 3 3 3 3 3 4 3 3 3 3 3 3 3 3 3 4 4 5 5 6 7 10 10 11 10 10 8 8 8
3 4 4 5 4 4 10 8 4 2 2 2 1 2 3 3 9 8 3 4 4 5 8 8 8 9 9 8 5 4 5 6 7 7 5 8 9 11 11 11 10 8 9
2 2 3 3 6 4 11 9 4 2 3 3 3 3 7 5 10 9 3 4 4 4 4 4 5 7 6 7 7 3 5 6 5 6 4 7 8 9 10 10 12 11 12